[[{"header":{"parameterUnit":"m.s-1","parameterCategory":1,"la1":30.2991,"la2":30.254,"lo1":-89.0895,"lo2":-89.0444,"dy":0.0017,"dx":0.0017,"nx":28,"ny":28,"refTime":"2025-08-20T09:00:00:Z","depth":0,"parameterNumber":2,"parameterNumberName":"U-component_of_WINDS"},"data":[0,0,0,0,0,0,0,0,0,0,0,0,0,0,0,0,0,0,0,0,0,0,0,0,0,0,0,0,0,0,0,0,0,0,0,0,0,0,0,0,0,0,0,0,0,0,0,0,0,0,0,0,0,0,0,0,0,0,0.1239,0.1241,0,0.1382,0.1383,0.1385,0.1454,0.1454,0.1454,0.1454,0.1601,0.1605,0.1609,0,0,0,0,0,0,0,0,0,0,0,0,0,0.1026,0.1029,0.1239,0.1241,0.1242,0.1381,0.1383,0.1385,0.1454,0.1454,0.1454,0.1454,0.16,0.1604,0.1609,0,0,0,0,0,0,0,0,0,0,0,0,0,0.1138,0.103,0.1239,0.1294,0.13,0.1381,0.1383,0.1386,0.1454,0.1454,0.1454,0.1454,0.1598,0.1604,0.161,0.1647,0,0,0.1628,0.163,0,0,0,0,0,0,0,0,0.1132,0.1146,0.1284,0.129,0.1297,0.14,0.1362,0.1473,0.1454,0.1396,0.1454,0.1454,0.1534,0.1545,0.1572,0.1654,0.166,0.1628,0.1632,0.1634,0.1636,0,0,0,0,0,0,0,0.1124,0.114,0.1295,0.1286,0.1294,0.1311,0.1327,0.1383,0.1464,0.1401,0.1406,0.1422,0.1538,0.1567,0.1576,0.1662,0.1628,0.1633,0.1637,0.1639,0.178,0.178,0,0,0,0,0,0,0.1107,0.1133,0.1291,0.13,0.1213,0.1315,0.1333,0.1367,0.1463,0.1478,0.1422,0.1425,0.1556,0.1569,0.1582,0.1631,0.1634,0.164,0.1643,0.178,0.178,0.178,0,0,0,0,0,0,0.1102,0.1121,0.1285,0.1218,0.124,0.1319,0.1357,0.137,0.1399,0.1479,0.1494,0.1437,0.1557,0.1573,0.163,0.1637,0.1643,0.1648,0.178,0.178,0.178,0.173,0,0,0,0,0,0,0.1096,0.1118,0.1134,0.1218,0.1244,0.1331,0.1357,0.1373,0.1409,0.1414,0.1497,0.151,0.1558,0.1621,0.1636,0.1645,0.1653,0.1779,0.178,0.178,0.1731,0.1728,0.1726,0,0,0,0,0,0.1088,0.1114,0.1134,0.1153,0.1264,0.1331,0.1346,0.14,0.1409,0.1425,0.1476,0.1508,0.1633,0.1626,0.1643,0.1655,0.1779,0.178,0.178,0.1732,0.1729,0.1726,0,0,0,0,0,0,0.1029,0.1126,0.1149,0.1203,0.1258,0.1343,0.1365,0.1395,0.1449,0.1452,0.1517,0.1535,0.1585,0.1626,0.1616,0.1695,0.1709,0.1713,0.1667,0.1664,0.1662,0.1651,0.1657,0,0,0,0,0,0.1022,0.1069,0.1151,0.1191,0.1217,0.1286,0.1317,0.1354,0.1414,0.1437,0.1493,0.155,0.1602,0.1636,0.1688,0.1737,0.1756,0.1753,0.175,0.1748,0.1751,0.1779,0.1778,0.1782,0.1782,0.1782,0,0,0.1009,0.1068,0.1093,0.118,0.1227,0.1274,0.1305,0.1353,0.1388,0.1445,0.1502,0.1544,0.1612,0.1664,0.169,0.1699,0.1754,0.1748,0.1746,0.175,0.1779,0.1778,0.1778,0.1782,0.1782,0.1782,0,0,0.1009,0.1058,0.1096,0.1142,0.1212,0.1258,0.1266,0.1346,0.1376,0.1434,0.1477,0.1519,0.1608,0.1655,0.169,0.1704,0.1735,0.1719,0.1706,0.1732,0.1732,0.1732,0.1737,0.1738,0.1722,0.1722,0.1722,0,0.0983,0.1055,0.1112,0.1157,0.1194,0.1246,0.1285,0.1327,0.1411,0.1435,0.1444,0.1556,0.1605,0.1669,0.1672,0.1699,0.1711,0.1711,0.1727,0.1728,0.1729,0.1734,0.1736,0.1719,0.172,0.172,0.172,0,0.102,0.1069,0.1091,0.117,0.121,0.1251,0.1314,0.1346,0.1379,0.1423,0.148,0.1541,0.1606,0.1624,0.1657,0.1692,0.1695,0.1715,0.1731,0.1725,0.1731,0.1734,0.1716,0.1717,0.1718,0.1718,0,0,0.0988,0.1097,0.1104,0.114,0.1221,0.126,0.1303,0.1367,0.1393,0.1449,0.1487,0.1559,0.1578,0.1617,0.1656,0.1679,0.1685,0.1696,0.1698,0.1691,0.1726,0.1711,0.1713,0.1706,0.1706,0.1707,0.1721,0,0.0999,0.108,0.1131,0.1191,0.1237,0.1286,0.1324,0.1377,0.1419,0.1463,0.151,0.156,0.158,0.1604,0.1629,0.1679,0.1693,0.1679,0.1742,0.1743,0.1723,0.1716,0.1701,0.1711,0.1723,0.1724,0.1724,0,0.1023,0.1077,0.1141,0.1215,0.1236,0.127,0.1331,0.1373,0.1434,0.1462,0.1505,0.1544,0.1591,0.1602,0.1667,0.1656,0.1685,0.1713,0.1715,0.1723,0.1734,0.1724,0.1716,0.1717,0.1729,0.1728,0.1728,0,0.0993,0.1081,0.1131,0.116,0.1249,0.127,0.1308,0.1369,0.1403,0.1457,0.148,0.1538,0.157,0.1614,0.1666,0.1669,0.1726,0.1742,0.1751,0.175,0.1762,0.176,0.1757,0.1779,0.1779,0.1779,0.1779,0,0.1,0.1037,0.1118,0.1149,0.1192,0.125,0.1291,0.1333,0.1386,0.1425,0.1471,0.1507,0.1574,0.1618,0.1659,0.1707,0.1721,0.1745,0.1756,0.1741,0.1738,0.1761,0.1762,0.178,0.1779,0.1779,0.1779,0,0.0974,0.103,0.1088,0.1166,0.1186,0.1214,0.1281,0.1312,0.1356,0.1404,0.1419,0.1487,0.1541,0.1597,0.1671,0.1698,0.1744,0.1759,0.1723,0.1729,0.1735,0.1734,0.1748,0.1752,0.177,0.177,0.177,0,0.0975,0.1005,0.1086,0.1116,0.1152,0.1199,0.1234,0.1291,0.1326,0.1396,0.1419,0.1476,0.1524,0.1607,0.1663,0.1719,0.1735,0.1736,0.1744,0.1728,0.1735,0.1733,0.1736,0.1734,0.1733,0.1733,0.1733,0,0.0971,0.0997,0.1046,0.1104,0.1144,0.1192,0.1242,0.1264,0.1331,0.1367,0.1422,0.146,0.1533,0.1589,0.1651,0.169,0.1722,0.1729,0.1734,0.172,0.1698,0.171,0.1716,0.1729,0.1729,0.173,0.173,0.173,0.0959,0.0988,0.1049,0.1101,0.1145,0.119,0.1223,0.1269,0.1316,0.1381,0.1412,0.1466,0.1525,0.1612,0.1649,0.1692,0.1702,0.1709,0.1711,0.1712,0.1708,0.1691,0.1704,0.1704,0.1704,0.1704,0.1704,0,0.0958,0.0999,0.1046,0.1115,0.1155,0.1181,0.1238,0.127,0.1318,0.1369,0.1416,0.1478,0.1532,0.1591,0.1648,0.1671,0.1687,0.1684,0.1683,0.1691,0.1697,0.1686,0.167,0.167,0.167,0.167,0.167,0.167,0.0962,0.1011,0.1043,0.1114,0.1155,0.1209,0.1239,0.128,0.1322,0.1389,0.1434,0.1472,0.1526,0.1587,0.1637,0.1653,0.1672,0.1664,0.1685,0.1689,0.1691,0.1694,0.1685,0.1668,0.1668,0.1676,0.1676,0.1676]},{"header":{"parameterUnit":"m.s-1","parameterCategory":1,"la1":30.2991,"la2":30.254,"lo1":-89.0895,"lo2":-89.0444,"dy":0.0017,"dx":0.0017,"nx":28,"ny":28,"refTime":"2025-08-20T09:00:00:Z","depth":0,"parameterNumber":3,"parameterNumberName":"V-component_of_WINDS"},"data":[0,0,0,0,0,0,0,0,0,0,0,0,0,0,0,0,0,0,0,0,0,0,0,0,0,0,0,0,0,0,0,0,0,0,0,0,0,0,0,0,0,0,0,0,0,0,0,0,0,0,0,0,0,0,0,0,0,0,3.6525,3.6524,0,3.6465,3.6464,3.6463,3.6457,3.6458,3.6459,3.6459,3.6391,3.6388,3.6386,0,0,0,0,0,0,0,0,0,0,0,0,0,3.6629,3.6627,3.6525,3.6524,3.6524,3.6465,3.6464,3.6463,3.6457,3.6458,3.6459,3.6459,3.6391,3.6389,3.6386,0,0,0,0,0,0,0,0,0,0,0,0,0,3.6578,3.6627,3.6525,3.6514,3.6512,3.6465,3.6464,3.6463,3.6457,3.6458,3.6459,3.646,3.6392,3.6389,3.6385,3.6344,0,0,3.6374,3.6373,0,0,0,0,0,0,0,0,3.6581,3.6574,3.6516,3.6514,3.6513,3.647,3.6476,3.6423,3.6457,3.6478,3.6459,3.646,3.6416,3.641,3.6397,3.634,3.6338,3.6374,3.6372,3.637,3.6369,0,0,0,0,0,0,0,3.6584,3.6576,3.6501,3.6515,3.6513,3.651,3.6503,3.6466,3.6442,3.6476,3.6475,3.6469,3.6415,3.64,3.6395,3.6337,3.6374,3.6371,3.6369,3.6367,3.6243,3.6242,0,0,0,0,0,0,3.6591,3.658,3.6503,3.6499,3.655,3.6507,3.65,3.6482,3.6442,3.6437,3.6468,3.6469,3.6406,3.6399,3.6393,3.6341,3.637,3.6367,3.6365,3.6244,3.6243,3.6241,0,0,0,0,0,0,3.6593,3.6584,3.6505,3.6539,3.6529,3.6504,3.6484,3.6481,3.6466,3.6436,3.6431,3.6458,3.6406,3.6398,3.6356,3.6339,3.6365,3.6362,3.6245,3.6244,3.6242,3.6238,0,0,0,0,0,0,3.6596,3.6585,3.657,3.6539,3.6527,3.6472,3.6483,3.6479,3.6461,3.6461,3.6425,3.642,3.6406,3.6362,3.6353,3.6334,3.6359,3.6247,3.6245,3.6243,3.6239,3.6236,3.6233,0,0,0,0,0,3.66,3.657,3.657,3.656,3.6509,3.6471,3.6464,3.6451,3.6459,3.6443,3.6424,3.6421,3.6342,3.6358,3.6347,3.6327,3.6248,3.6245,3.6243,3.6241,3.6237,3.6233,0,0,0,0,0,0,3.6597,3.6566,3.6565,3.6524,3.6501,3.647,3.645,3.6447,3.6418,3.642,3.6402,3.6394,3.6354,3.6336,3.6354,3.6285,3.6296,3.6291,3.6298,3.6294,3.6291,3.6295,3.6356,0,0,0,0,0,3.6592,3.6566,3.6539,3.6506,3.6495,3.6474,3.6457,3.6449,3.6423,3.6412,3.639,3.6363,3.6332,3.6312,3.6282,3.6237,3.6229,3.6218,3.6215,3.6213,3.6209,3.6183,3.6178,3.6233,3.6233,3.6233,0,0,3.6581,3.656,3.6545,3.6505,3.6486,3.6458,3.6466,3.6435,3.6414,3.6407,3.6367,3.635,3.6319,3.6276,3.6255,3.626,3.6192,3.621,3.6208,3.6205,3.618,3.6175,3.617,3.6231,3.6232,3.6232,0,0,3.6546,3.6528,3.6499,3.648,3.6452,3.6439,3.6432,3.6402,3.6391,3.6351,3.6346,3.6319,3.6266,3.6244,3.6226,3.6184,3.618,3.6174,3.6158,3.6134,3.6129,3.6125,3.6109,3.6104,3.617,3.617,3.617,0,3.6534,3.6494,3.6483,3.6454,3.6436,3.6432,3.64,3.6382,3.6344,3.6331,3.6337,3.6272,3.625,3.6202,3.6192,3.6177,3.6167,3.6178,3.6131,3.6127,3.6123,3.6108,3.6102,3.617,3.617,3.617,3.617,0,3.6481,3.6453,3.6432,3.6399,3.6379,3.6348,3.6332,3.6312,3.6306,3.6292,3.6251,3.6226,3.619,3.6178,3.6171,3.6129,3.6132,3.6135,3.6145,3.6118,3.6103,3.6097,3.6169,3.6169,3.6169,3.617,0,0,3.6441,3.6404,3.6396,3.6381,3.635,3.6327,3.6296,3.6264,3.6247,3.6222,3.6194,3.615,3.6153,3.6133,3.6123,3.6102,3.6069,3.6107,3.6106,3.61,3.602,3.6018,3.6011,3.6067,3.6066,3.6065,3.6022,0,3.6402,3.635,3.634,3.6293,3.6266,3.6262,3.6235,3.6212,3.6198,3.6171,3.6155,3.6124,3.6131,3.6118,3.6097,3.6078,3.6053,3.6081,3.6039,3.6038,3.6047,3.6004,3.6001,3.5962,3.6017,3.6016,3.6015,0,3.6349,3.6325,3.6277,3.625,3.6238,3.6214,3.6184,3.616,3.6133,3.6124,3.6102,3.6095,3.6061,3.6074,3.6026,3.6046,3.6028,3.6016,3.6015,3.6009,3.6024,3.5996,3.5949,3.5943,3.6006,3.6007,3.6007,0,3.6325,3.6279,3.6245,3.6232,3.62,3.6183,3.6168,3.6143,3.6125,3.6098,3.6085,3.6054,3.6036,3.6011,3.5995,3.6007,3.5948,3.596,3.5938,3.5939,3.5925,3.5926,3.5874,3.5916,3.5916,3.5916,3.5916,0,3.6281,3.6252,3.6233,3.6212,3.6178,3.6166,3.6132,3.6117,3.6095,3.6069,3.6063,3.6038,3.6019,3.5992,3.5979,3.5941,3.5933,3.5923,3.592,3.5923,3.5925,3.5911,3.5913,3.5914,3.5915,3.5915,3.5915,0,3.6247,3.6234,3.6196,3.617,3.6162,3.6138,3.6115,3.6093,3.6079,3.6047,3.6038,3.6016,3.5983,3.5966,3.5923,3.5915,3.5872,3.587,3.5882,3.588,3.5859,3.5861,3.5795,3.5786,3.5835,3.5834,3.5834,0,3.6221,3.6198,3.617,3.6153,3.6139,3.6112,3.6094,3.6081,3.6062,3.6031,3.6012,3.598,3.5953,3.59,3.5879,3.5847,3.5844,3.5823,3.5839,3.5843,3.5843,3.5844,3.5841,3.582,3.582,3.5819,3.5819,0,3.6174,3.6169,3.6144,3.6117,3.6096,3.6073,3.6051,3.6037,3.602,3.5999,3.5966,3.5946,3.5904,3.5871,3.5838,3.5821,3.5816,3.5815,3.5808,3.581,3.5818,3.5813,3.5873,3.5816,3.5816,3.5816,3.5817,3.5817,3.6142,3.6122,3.6099,3.6072,3.6054,3.6033,3.6012,3.5997,3.597,3.5937,3.5931,3.5896,3.587,3.5825,3.5807,3.5778,3.5782,3.5772,3.577,3.5767,3.5766,3.5823,3.5772,3.5772,3.5772,3.5772,3.5772,0,3.6095,3.6081,3.6055,3.6025,3.6003,3.6004,3.5979,3.596,3.5931,3.5908,3.5882,3.5845,3.5813,3.5791,3.5758,3.5739,3.5737,3.5731,3.5732,3.5728,3.5765,3.5774,3.5734,3.5734,3.5734,3.5734,3.5734,3.5734,3.6067,3.6033,3.6026,3.5982,3.5967,3.5936,3.5921,3.5902,3.5883,3.5843,3.5817,3.5804,3.578,3.5746,3.5717,3.5711,3.5698,3.5693,3.5686,3.5721,3.5725,3.5729,3.5737,3.5691,3.5691,3.5652,3.5651,3.5651]}]]